Wetterdaten: aktuell Mittwoch, 08.07.2020 10:00
Datum Zeit Temp. 2m Temp. 5cm Feuchte A. Luftdruck Regen Wind Richtung Richtung Sonnenschein ET UV Solar Windben
08.07.2020 10:00 14,9 C 20,0 C 79 % 1014,1 hPa 0,0 l/m 4,8 km/h (1 Bft) S-SW 202 0 min 0,203 mm 2,2 UV-I 366 W/m 12,9 km/h (3 Bft)
08.07.2020 09:55 14,9 C 20,0 C 80 % 1014,1 hPa 0,0 l/m 6,4 km/h (2 Bft) W 270 0 min 0,000 mm 2,0 UV-I 339 W/m 16,1 km/h (3 Bft)
08.07.2020 09:50 14,9 C 18,9 C 79 % 1014,0 hPa 0,0 l/m 4,8 km/h (1 Bft) W 270 0 min 0,000 mm 1,7 UV-I 267 W/m 16,1 km/h (3 Bft)
08.07.2020 09:45 15,2 C 18,9 C 78 % 1014,0 hPa 0,0 l/m 4,8 km/h (1 Bft) W-NW 292 0 min 0,000 mm 1,2 UV-I 232 W/m 14,5 km/h (3 Bft)
08.07.2020 09:40 15,2 C 20,6 C 78 % 1014,0 hPa 0,0 l/m 4,8 km/h (1 Bft) W-SW 247 0 min 0,000 mm 1,6 UV-I 413 W/m 12,9 km/h (3 Bft)
08.07.2020 09:35 14,9 C 20,6 C 79 % 1014,0 hPa 0,0 l/m 4,8 km/h (1 Bft) W-NW 292 0 min 0,000 mm 2,5 UV-I 279 W/m 14,5 km/h (3 Bft)
08.07.2020 09:30 15,1 C 19,4 C 78 % 1014,1 hPa 0,0 l/m 8,0 km/h (2 Bft) W-NW 292 0 min 0,000 mm 1,7 UV-I 396 W/m 16,1 km/h (3 Bft)
08.07.2020 09:25 15,3 C 20,0 C 80 % 1014,0 hPa 0,0 l/m 3,2 km/h (1 Bft) W-NW 292 0 min 0,000 mm 1,6 UV-I 327 W/m 12,9 km/h (3 Bft)
08.07.2020 09:20 15,3 C 21,7 C 80 % 1014,0 hPa 0,0 l/m 6,4 km/h (2 Bft) SW 225 5 min 0,000 mm 2,4 UV-I 719 W/m 16,1 km/h (3 Bft)
08.07.2020 09:15 15,0 C 22,2 C 80 % 1014,0 hPa 0,0 l/m 4,8 km/h (1 Bft) S-SW 202 5 min 0,000 mm 2,4 UV-I 682 W/m 12,9 km/h (3 Bft)
08.07.2020 09:10 15,2 C 20,0 C 81 % 1014,1 hPa 0,0 l/m 8,0 km/h (2 Bft) SW 225 5 min 0,000 mm 2,2 UV-I 596 W/m 17,7 km/h (3 Bft)
08.07.2020 09:05 15,1 C 22,8 C 81 % 1014,0 hPa 0,0 l/m 4,8 km/h (1 Bft) SW 225 5 min 0,000 mm 2,2 UV-I 589 W/m 12,9 km/h (3 Bft)
08.07.2020 09:00 14,8 C 22,2 C 81 % 1014,0 hPa 0,0 l/m 3,2 km/h (1 Bft) SW 225 5 min 0,229 mm 2,1 UV-I 554 W/m 8,0 km/h (2 Bft)
08.07.2020 08:55 14,6 C 21,1 C 83 % 1014,0 hPa 0,0 l/m 6,4 km/h (2 Bft) W-NW 292 5 min 0,000 mm 2,0 UV-I 522 W/m 14,5 km/h (3 Bft)
08.07.2020 08:50 14,4 C 20,0 C 82 % 1014,0 hPa 0,0 l/m 6,4 km/h (2 Bft) NW 315 5 min 0,000 mm 1,8 UV-I 519 W/m 14,5 km/h (3 Bft)
08.07.2020 08:45 14,4 C 20,0 C 83 % 1014,0 hPa 0,0 l/m 3,2 km/h (1 Bft) W 270 5 min 0,000 mm 1,7 UV-I 496 W/m 9,7 km/h (2 Bft)
08.07.2020 08:40 14,3 C 18,9 C 83 % 1014,1 hPa 0,0 l/m 6,4 km/h (2 Bft) S-SW 202 5 min 0,000 mm 1,7 UV-I 473 W/m 16,1 km/h (3 Bft)
08.07.2020 08:35 14,0 C 18,9 C 85 % 1014,0 hPa 0,0 l/m 6,4 km/h (2 Bft) SW 225 5 min 0,000 mm 1,6 UV-I 461 W/m 17,7 km/h (3 Bft)
08.07.2020 08:30 13,8 C 17,8 C 85 % 1014,1 hPa 0,0 l/m 8,0 km/h (2 Bft) SW 225 5 min 0,000 mm 1,5 UV-I 443 W/m 19,3 km/h (3 Bft)
08.07.2020 08:25 13,5 C 18,3 C 86 % 1014,0 hPa 0,0 l/m 6,4 km/h (2 Bft) SW 225 5 min 0,000 mm 1,4 UV-I 429 W/m 16,1 km/h (3 Bft)
08.07.2020 08:20 13,4 C 17,8 C 86 % 1014,1 hPa 0,0 l/m 4,8 km/h (1 Bft) SW 225 5 min 0,000 mm 1,4 UV-I 425 W/m 12,9 km/h (3 Bft)
08.07.2020 08:15 13,3 C 17,2 C 86 % 1014,1 hPa 0,0 l/m 6,4 km/h (2 Bft) SW 225 5 min 0,000 mm 1,3 UV-I 290 W/m 12,9 km/h (3 Bft)
08.07.2020 08:10 13,1 C 17,8 C 87 % 1014,0 hPa 0,0 l/m 4,8 km/h (1 Bft) SW 225 5 min 0,000 mm 1,3 UV-I 469 W/m 11,3 km/h (2 Bft)
08.07.2020 08:05 13,4 C 16,1 C 86 % 1014,0 hPa 0,0 l/m 6,4 km/h (2 Bft) SW 225 0 min 0,000 mm 1,0 UV-I 214 W/m 12,9 km/h (3 Bft)
08.07.2020 08:00 13,5 C 18,3 C 87 % 1014,0 hPa 0,0 l/m 4,8 km/h (1 Bft) S-SW 202 5 min 0,152 mm 1,1 UV-I 445 W/m 11,3 km/h (2 Bft)
08.07.2020 07:55 13,2 C 20,0 C 87 % 1013,9 hPa 0,0 l/m 4,8 km/h (1 Bft) SW 225 5 min 0,000 mm 1,1 UV-I 517 W/m 11,3 km/h (2 Bft)
08.07.2020 07:50 12,8 C 18,3 C 88 % 1014,0 hPa 0,0 l/m 4,8 km/h (1 Bft) SW 225 5 min 0,000 mm 1,0 UV-I 461 W/m 12,9 km/h (3 Bft)
08.07.2020 07:45 12,7 C 16,7 C 89 % 1014,0 hPa 0,0 l/m 4,8 km/h (1 Bft) SW 225 5 min 0,000 mm 0,9 UV-I 415 W/m 12,9 km/h (3 Bft)
08.07.2020 07:40 12,7 C 15,6 C 88 % 1014,0 hPa 0,0 l/m 4,8 km/h (1 Bft) SW 225 5 min 0,000 mm 0,8 UV-I 260 W/m 14,5 km/h (3 Bft)
08.07.2020 07:35 12,6 C 16,1 C 90 % 1014,0 hPa 0,0 l/m 4,8 km/h (1 Bft) S-SW 202 5 min 0,000 mm 0,8 UV-I 413 W/m 9,7 km/h (2 Bft)
08.07.2020 07:30 12,5 C 16,1 C 90 % 1013,9 hPa 0,0 l/m 6,4 km/h (2 Bft) SW 225 5 min 0,000 mm 0,8 UV-I 396 W/m 14,5 km/h (3 Bft)
08.07.2020 07:25 12,0 C 16,1 C 91 % 1013,9 hPa 0,0 l/m 3,2 km/h (1 Bft) W-SW 247 5 min 0,000 mm 0,7 UV-I 381 W/m 14,5 km/h (3 Bft)
08.07.2020 07:20 11,7 C 13,9 C 91 % 1013,9 hPa 0,0 l/m 4,8 km/h (1 Bft) SW 225 5 min 0,000 mm 0,6 UV-I 316 W/m 14,5 km/h (3 Bft)
08.07.2020 07:15 11,6 C 12,8 C 92 % 1014,0 hPa 0,0 l/m 4,8 km/h (1 Bft) SW 225 5 min 0,000 mm 0,6 UV-I 260 W/m 11,3 km/h (2 Bft)
08.07.2020 07:10 11,5 C 12,8 C 92 % 1014,0 hPa 0,0 l/m 1,6 km/h (1 Bft) SW 225 5 min 0,000 mm 0,5 UV-I 200 W/m 6,4 km/h (2 Bft)
08.07.2020 07:05 11,4 C 12,2 C 92 % 1013,9 hPa 0,0 l/m 3,2 km/h (1 Bft) SW 225 0 min 0,000 mm 0,5 UV-I 137 W/m 8,0 km/h (2 Bft)
08.07.2020 07:00 11,5 C 11,1 C 92 % 1013,9 hPa 0,0 l/m 4,8 km/h (1 Bft) SW 225 5 min 0,051 mm 0,0 UV-I 167 W/m 11,3 km/h (2 Bft)
08.07.2020 06:55 11,6 C 11,7 C 92 % 1013,9 hPa 0,0 l/m 3,2 km/h (1 Bft) SW 225 0 min 0,000 mm 0,0 UV-I 153 W/m 9,7 km/h (2 Bft)
08.07.2020 06:50 11,4 C 13,3 C 93 % 1014,0 hPa 0,0 l/m 1,6 km/h (1 Bft) SW 225 5 min 0,000 mm 0,0 UV-I 190 W/m 6,4 km/h (2 Bft)
08.07.2020 06:45 11,3 C 12,2 C 93 % 1014,0 hPa 0,0 l/m 6,4 km/h (2 Bft) SW 225 5 min 0,000 mm 0,0 UV-I 188 W/m 9,7 km/h (2 Bft)
08.07.2020 06:40 11,2 C 12,2 C 93 % 1014,0 hPa 0,0 l/m 3,2 km/h (1 Bft) SW 225 5 min 0,000 mm 0,0 UV-I 153 W/m 8,0 km/h (2 Bft)
08.07.2020 06:35 11,1 C 11,7 C 93 % 1014,0 hPa 0,0 l/m 4,8 km/h (1 Bft) SW 225 5 min 0,000 mm 0,0 UV-I 151 W/m 11,3 km/h (2 Bft)
08.07.2020 06:30 11,1 C 11,7 C 93 % 1014,0 hPa 0,0 l/m 4,8 km/h (1 Bft) SW 225 5 min 0,000 mm 0,0 UV-I 144 W/m 11,3 km/h (2 Bft)
08.07.2020 06:25 10,9 C 11,1 C 93 % 1014,1 hPa 0,0 l/m 3,2 km/h (1 Bft) W 270 5 min 0,000 mm 0,0 UV-I 120 W/m 8,0 km/h (2 Bft)
08.07.2020 06:20 10,9 C 10,6 C 93 % 1014,1 hPa 0,0 l/m 1,6 km/h (1 Bft) SW 225 0 min 0,000 mm 0,0 UV-I 60 W/m 8,0 km/h (2 Bft)
08.07.2020 06:15 10,9 C 10,6 C 93 % 1014,1 hPa 0,0 l/m 4,8 km/h (1 Bft) SW 225 0 min 0,000 mm 0,0 UV-I 53 W/m 11,3 km/h (2 Bft)
08.07.2020 06:10 10,9 C 10,6 C 93 % 1014,2 hPa 0,0 l/m 1,6 km/h (1 Bft) SW 225 0 min 0,000 mm 0,0 UV-I 42 W/m 6,4 km/h (2 Bft)
08.07.2020 06:05 10,8 C 10,6 C 93 % 1014,1 hPa 0,0 l/m 3,2 km/h (1 Bft) SW 225 0 min 0,000 mm 0,0 UV-I 30 W/m 11,3 km/h (2 Bft)
08.07.2020 06:00 10,8 C 10,0 C 93 % 1014,1 hPa 0,0 l/m 3,2 km/h (1 Bft) SW 225 0 min 0,000 mm 0,0 UV-I 21 W/m 8,0 km/h (2 Bft)
08.07.2020 05:55 10,8 C 10,0 C 93 % 1014,0 hPa 0,0 l/m 3,2 km/h (1 Bft) SW 225 0 min 0,000 mm 0,0 UV-I 19 W/m 8,0 km/h (2 Bft)
08.07.2020 05:50 10,8 C 10,0 C 93 % 1014,1 hPa 0,0 l/m 3,2 km/h (1 Bft) SW 225 0 min 0,000 mm 0,0 UV-I 21 W/m 8,0 km/h (2 Bft)
08.07.2020 05:45 10,8 C 10,0 C 93 % 1014,1 hPa 0,0 l/m 3,2 km/h (1 Bft) SW 225 0 min 0,000 mm 0,0 UV-I 19 W/m 9,7 km/h (2 Bft)
08.07.2020 05:40 10,8 C 10,0 C 93 % 1014,1 hPa 0,0 l/m 3,2 km/h (1 Bft) S-SW 202 0 min 0,000 mm 0,0 UV-I 19 W/m 8,0 km/h (2 Bft)
08.07.2020 05:35 10,8 C 10,0 C 93 % 1014,1 hPa 0,0 l/m 3,2 km/h (1 Bft) SW 225 0 min 0,000 mm 0,0 UV-I 12 W/m 6,4 km/h (2 Bft)
08.07.2020 05:30 10,8 C 10,0 C 93 % 1014,2 hPa 0,0 l/m 3,2 km/h (1 Bft) S-SW 202 0 min 0,000 mm 0,0 UV-I 11 W/m 9,7 km/h (2 Bft)
08.07.2020 05:25 10,8 C 10,0 C 93 % 1014,1 hPa 0,0 l/m 3,2 km/h (1 Bft) SW 225 0 min 0,000 mm 0,0 UV-I 11 W/m 12,9 km/h (3 Bft)
08.07.2020 05:20 10,8 C 10,0 C 94 % 1014,1 hPa 0,0 l/m 3,2 km/h (1 Bft) SW 225 0 min 0,000 mm 0,0 UV-I 11 W/m 11,3 km/h (2 Bft)
08.07.2020 05:15 10,8 C 10,0 C 94 % 1014,1 hPa 0,0 l/m 3,2 km/h (1 Bft) SW 225 0 min 0,000 mm 0,0 UV-I 11 W/m 8,0 km/h (2 Bft)
08.07.2020 05:10 10,8 C 10,0 C 94 % 1014,2 hPa 0,0 l/m 3,2 km/h (1 Bft) SW 225 0 min 0,000 mm 0,0 UV-I 9 W/m 9,7 km/h (2 Bft)
08.07.2020 05:05 10,8 C 10,0 C 94 % 1014,1 hPa 0,0 l/m 3,2 km/h (1 Bft) SW 225 0 min 0,000 mm 0,0 UV-I 9 W/m 8,0 km/h (2 Bft)
08.07.2020 05:00 10,8 C 10,0 C 94 % 1014,1 hPa 0,0 l/m 1,6 km/h (1 Bft) SW 225 0 min 0,000 mm 0,0 UV-I 9 W/m 6,4 km/h (2 Bft)
08.07.2020 04:55 10,8 C 10,0 C 93 % 1014,2 hPa 0,0 l/m 1,6 km/h (1 Bft) W-SW 247 0 min 0,000 mm 0,0 UV-I 7 W/m 4,8 km/h (1 Bft)
08.07.2020 04:50 10,9 C 10,0 C 94 % 1014,2 hPa 0,0 l/m 1,6 km/h (1 Bft) W-NW 292 0 min 0,000 mm 0,0 UV-I 5 W/m 6,4 km/h (2 Bft)
08.07.2020 04:45 10,9 C 10,0 C 94 % 1014,2 hPa 0,0 l/m 3,2 km/h (1 Bft) SW 225 0 min 0,000 mm 0,0 UV-I 5 W/m 8,0 km/h (2 Bft)
08.07.2020 04:40 10,9 C 10,0 C 94 % 1014,2 hPa 0,0 l/m 3,2 km/h (1 Bft) SW 225 0 min 0,000 mm 0,0 UV-I 0 W/m 6,4 km/h (2 Bft)
08.07.2020 04:35 10,9 C 10,0 C 94 % 1014,2 hPa 0,0 l/m 1,6 km/h (1 Bft) SW 225 0 min 0,000 mm 0,0 UV-I 0 W/m 6,4 km/h (2 Bft)
08.07.2020 04:30 10,9 C 10,0 C 94 % 1014,2 hPa 0,2 l/m 3,2 km/h (1 Bft) W-SW 247 0 min 0,000 mm 0,0 UV-I 0 W/m 6,4 km/h (2 Bft)
08.07.2020 04:25 10,9 C 10,0 C 94 % 1014,3 hPa 0,0 l/m 1,6 km/h (1 Bft) W 270 0 min 0,000 mm 0,0 UV-I 0 W/m 6,4 km/h (2 Bft)
08.07.2020 04:20 11,0 C 10,0 C 94 % 1014,3 hPa 0,0 l/m 1,6 km/h (1 Bft) W 270 0 min 0,000 mm 0,0 UV-I 0 W/m 6,4 km/h (2 Bft)
08.07.2020 04:15 11,0 C 10,0 C 94 % 1014,3 hPa 0,0 l/m 0,0 km/h (0 Bft) W 270 0 min 0,000 mm 0,0 UV-I 0 W/m 3,2 km/h (1 Bft)
08.07.2020 04:10 11,1 C 10,6 C 94 % 1014,3 hPa 0,0 l/m 0,0 km/h (0 Bft) W 270 0 min 0,000 mm 0,0 UV-I 0 W/m 4,8 km/h (1 Bft)
08.07.2020 04:05 11,1 C 10,6 C 94 % 1014,4 hPa 0,0 l/m 1,6 km/h (1 Bft) W 270 0 min 0,000 mm 0,0 UV-I 0 W/m 6,4 km/h (2 Bft)
08.07.2020 04:00 11,1 C 10,6 C 94 % 1014,4 hPa 0,0 l/m 1,6 km/h (1 Bft) W-NW 292 0 min 0,000 mm 0,0 UV-I 0 W/m 4,8 km/h (1 Bft)
08.07.2020 03:55 11,1 C 10,6 C 94 % 1014,4 hPa 0,0 l/m 1,6 km/h (1 Bft) W-NW 292 0 min 0,000 mm 0,0 UV-I 0 W/m 3,2 km/h (1 Bft)
08.07.2020 03:50 11,1 C 10,6 C 94 % 1014,5 hPa 0,0 l/m 1,6 km/h (1 Bft) W-NW 292 0 min 0,000 mm 0,0 UV-I 0 W/m 6,4 km/h (2 Bft)
08.07.2020 03:45 11,1 C 10,6 C 94 % 1014,5 hPa 0,0 l/m 1,6 km/h (1 Bft) W-SW 247 0 min 0,000 mm 0,0 UV-I 0 W/m 4,8 km/h (1 Bft)
08.07.2020 03:40 11,0 C 10,6 C 94 % 1014,5 hPa 0,0 l/m 1,6 km/h (1 Bft) W 270 0 min 0,000 mm 0,0 UV-I 0 W/m 6,4 km/h (2 Bft)
08.07.2020 03:35 11,0 C 10,6 C 94 % 1014,6 hPa 0,0 l/m 1,6 km/h (1 Bft) W-SW 247 0 min 0,000 mm 0,0 UV-I 0 W/m 6,4 km/h (2 Bft)
08.07.2020 03:30 11,0 C 10,6 C 94 % 1014,6 hPa 0,0 l/m 1,6 km/h (1 Bft) SW 225 0 min 0,000 mm 0,0 UV-I 0 W/m 6,4 km/h (2 Bft)
08.07.2020 03:25 11,0 C 10,0 C 94 % 1014,6 hPa 0,0 l/m 1,6 km/h (1 Bft) SW 225 0 min 0,000 mm 0,0 UV-I 0 W/m 6,4 km/h (2 Bft)
08.07.2020 03:20 10,9 C 10,0 C 94 % 1014,6 hPa 0,0 l/m 1,6 km/h (1 Bft) SW 225 0 min 0,000 mm 0,0 UV-I 0 W/m 6,4 km/h (2 Bft)
08.07.2020 03:15 11,0 C 10,0 C 94 % 1014,6 hPa 0,0 l/m 0,0 km/h (0 Bft) SW 225 0 min 0,000 mm 0,0 UV-I 0 W/m 4,8 km/h (1 Bft)
08.07.2020 03:10 11,1 C 10,0 C 94 % 1014,6 hPa 0,0 l/m 1,6 km/h (1 Bft) SW 225 0 min 0,000 mm 0,0 UV-I 0 W/m 8,0 km/h (2 Bft)
08.07.2020 03:05 11,1 C 10,0 C 94 % 1014,6 hPa 0,0 l/m 1,6 km/h (1 Bft) SW 225 0 min 0,000 mm 0,0 UV-I 0 W/m 6,4 km/h (2 Bft)
08.07.2020 03:00 11,2 C 10,0 C 94 % 1014,8 hPa 0,0 l/m 3,2 km/h (1 Bft) SW 225 0 min 0,000 mm 0,0 UV-I 0 W/m 8,0 km/h (2 Bft)
08.07.2020 02:55 11,2 C 10,0 C 94 % 1014,8 hPa 0,0 l/m 1,6 km/h (1 Bft) SW 225 0 min 0,000 mm 0,0 UV-I 0 W/m 4,8 km/h (1 Bft)
08.07.2020 02:50 11,2 C 10,6 C 94 % 1014,7 hPa 0,0 l/m 1,6 km/h (1 Bft) SW 225 0 min 0,000 mm 0,0 UV-I 0 W/m 8,0 km/h (2 Bft)
08.07.2020 02:45 11,2 C 10,6 C 93 % 1014,8 hPa 0,0 l/m 1,6 km/h (1 Bft) W 270 0 min 0,000 mm 0,0 UV-I 0 W/m 6,4 km/h (2 Bft)
08.07.2020 02:40 11,2 C 10,0 C 94 % 1014,9 hPa 0,0 l/m 0,0 km/h (0 Bft) W 270 0 min 0,000 mm 0,0 UV-I 0 W/m 9,7 km/h (2 Bft)
08.07.2020 02:35 11,2 C 10,6 C 94 % 1014,8 hPa 0,0 l/m 1,6 km/h (1 Bft) W 270 0 min 0,000 mm 0,0 UV-I 0 W/m 4,8 km/h (1 Bft)
08.07.2020 02:30 11,3 C 10,6 C 94 % 1014,8 hPa 0,0 l/m 0,0 km/h (0 Bft) W 270 0 min 0,000 mm 0,0 UV-I 0 W/m 4,8 km/h (1 Bft)
08.07.2020 02:25 11,3 C 10,6 C 94 % 1014,8 hPa 0,0 l/m 1,6 km/h (1 Bft) W 270 0 min 0,000 mm 0,0 UV-I 0 W/m 3,2 km/h (1 Bft)
08.07.2020 02:20 11,3 C 10,6 C 94 % 1014,9 hPa 0,0 l/m 1,6 km/h (1 Bft) W 270 0 min 0,000 mm 0,0 UV-I 0 W/m 4,8 km/h (1 Bft)
08.07.2020 02:15 11,3 C 10,6 C 94 % 1014,9 hPa 0,0 l/m 1,6 km/h (1 Bft) W 270 0 min 0,000 mm 0,0 UV-I 0 W/m 6,4 km/h (2 Bft)
08.07.2020 02:10 11,3 C 10,6 C 94 % 1014,8 hPa 0,0 l/m 1,6 km/h (1 Bft) W 270 0 min 0,000 mm 0,0 UV-I 0 W/m 6,4 km/h (2 Bft)
08.07.2020 02:05 11,3 C 10,6 C 94 % 1014,9 hPa 0,0 l/m 1,6 km/h (1 Bft) W-NW 292 0 min 0,000 mm 0,0 UV-I 0 W/m 6,4 km/h (2 Bft)
08.07.2020 02:00 11,2 C 10,6 C 94 % 1015,0 hPa 0,0 l/m 1,6 km/h (1 Bft) W-NW 292 0 min 0,000 mm 0,0 UV-I 0 W/m 6,4 km/h (2 Bft)
08.07.2020 01:55 11,2 C 10,6 C 94 % 1014,9 hPa 0,0 l/m 1,6 km/h (1 Bft) SW 225 0 min 0,000 mm 0,0 UV-I 0 W/m 9,7 km/h (2 Bft)
08.07.2020 01:50 11,2 C 10,6 C 93 % 1014,9 hPa 0,0 l/m 0,0 km/h (0 Bft) N 0 0 min 0,000 mm 0,0 UV-I 0 W/m 0,0 km/h (0 Bft)
08.07.2020 01:45 11,2 C 10,6 C 94 % 1014,9 hPa 0,0 l/m 1,6 km/h (1 Bft) W-SW 247 0 min 0,000 mm 0,0 UV-I 0 W/m 4,8 km/h (1 Bft)
08.07.2020 01:40 11,2 C 10,6 C 94 % 1014,9 hPa 0,0 l/m 1,6 km/h (1 Bft) W-SW 247 0 min 0,000 mm 0,0 UV-I 0 W/m 6,4 km/h (2 Bft)
08.07.2020 01:35 11,2 C 10,6 C 94 % 1015,0 hPa 0,0 l/m 1,6 km/h (1 Bft) W-NW 292 0 min 0,000 mm 0,0 UV-I 0 W/m 6,4 km/h (2 Bft)
08.07.2020 01:30 11,2 C 10,0 C 94 % 1015,0 hPa 0,0 l/m 1,6 km/h (1 Bft) SW 225 0 min 0,000 mm 0,0 UV-I 0 W/m 4,8 km/h (1 Bft)
08.07.2020 01:25 11,2 C 10,6 C 94 % 1015,1 hPa 0,0 l/m 1,6 km/h (1 Bft) SW 225 0 min 0,000 mm 0,0 UV-I 0 W/m 4,8 km/h (1 Bft)
08.07.2020 01:20 11,2 C 10,6 C 94 % 1015,0 hPa 0,0 l/m 4,8 km/h (1 Bft) SW 225 0 min 0,000 mm 0,0 UV-I 0 W/m 12,9 km/h (3 Bft)
08.07.2020 01:15 11,3 C 10,6 C 94 % 1015,0 hPa 0,0 l/m 3,2 km/h (1 Bft) W-NW 292 0 min 0,000 mm 0,0 UV-I 0 W/m 9,7 km/h (2 Bft)
08.07.2020 01:10 11,2 C 10,6 C 94 % 1015,1 hPa 0,0 l/m 3,2 km/h (1 Bft) W 270 0 min 0,000 mm 0,0 UV-I 0 W/m 11,3 km/h (2 Bft)
08.07.2020 01:05 11,3 C 10,6 C 94 % 1015,1 hPa 0,0 l/m 1,6 km/h (1 Bft) W-SW 247 0 min 0,000 mm 0,0 UV-I 0 W/m 8,0 km/h (2 Bft)
08.07.2020 01:00 11,3 C 10,6 C 93 % 1015,1 hPa 0,0 l/m 3,2 km/h (1 Bft) SW 225 0 min 0,000 mm 0,0 UV-I 0 W/m 8,0 km/h (2 Bft)
08.07.2020 00:55 11,3 C 10,6 C 93 % 1015,1 hPa 0,0 l/m 1,6 km/h (1 Bft) SW 225 0 min 0,000 mm 0,0 UV-I 0 W/m 6,4 km/h (2 Bft)
08.07.2020 00:50 11,4 C 10,6 C 93 % 1015,1 hPa 0,0 l/m 1,6 km/h (1 Bft) SW 225 0 min 0,000 mm 0,0 UV-I 0 W/m 6,4 km/h (2 Bft)
08.07.2020 00:45 11,4 C 10,6 C 93 % 1015,2 hPa 0,0 l/m 1,6 km/h (1 Bft) W 270 0 min 0,000 mm 0,0 UV-I 0 W/m 8,0 km/h (2 Bft)
08.07.2020 00:40 11,4 C 10,6 C 93 % 1015,2 hPa 0,0 l/m 3,2 km/h (1 Bft) SW 225 0 min 0,000 mm 0,0 UV-I 0 W/m 12,9 km/h (3 Bft)
08.07.2020 00:35 11,5 C 10,6 C 93 % 1015,2 hPa 0,0 l/m 1,6 km/h (1 Bft) SW 225 0 min 0,000 mm 0,0 UV-I 0 W/m 8,0 km/h (2 Bft)
08.07.2020 00:30 11,4 C 10,6 C 93 % 1015,2 hPa 0,0 l/m 1,6 km/h (1 Bft) SW 225 0 min 0,000 mm 0,0 UV-I 0 W/m 8,0 km/h (2 Bft)
08.07.2020 00:25 11,5 C 10,6 C 93 % 1015,2 hPa 0,0 l/m 1,6 km/h (1 Bft) SW 225 0 min 0,000 mm 0,0 UV-I 0 W/m 4,8 km/h (1 Bft)
08.07.2020 00:20 11,5 C 10,6 C 93 % 1015,2 hPa 0,0 l/m 3,2 km/h (1 Bft) W-SW 247 0 min 0,000 mm 0,0 UV-I 0 W/m 8,0 km/h (2 Bft)
08.07.2020 00:15 11,5 C 10,6 C 93 % 1015,2 hPa 0,0 l/m 3,2 km/h (1 Bft) SW 225 0 min 0,000 mm 0,0 UV-I 0 W/m 9,7 km/h (2 Bft)
08.07.2020 00:10 11,5 C 10,6 C 93 % 1015,3 hPa 0,0 l/m 3,2 km/h (1 Bft) SW 225 0 min 0,000 mm 0,0 UV-I 0 W/m 9,7 km/h (2 Bft)
08.07.2020 00:05 11,6 C 10,6 C 92 % 1015,3 hPa 0,0 l/m 3,2 km/h (1 Bft) SW 225 0 min 0,000 mm 0,0 UV-I 0 W/m 9,7 km/h (2 Bft)
08.07.2020 00:00 11,6 C 10,6 C 92 % 1015,3 hPa 0,0 l/m 3,2 km/h (1 Bft) W 270 0 min 0,000 mm 0,0 UV-I 0 W/m 11,3 km/h (2 Bft)
_ Min-Zeit 05:10 01:30 09:30 06:55 - 01:50 - - - - - - 01:50
Minimum _ 10,7 C 10,0 C 78 % 1013,9 hPa - 0,0 km/h (0 Bft) - - - - - - 0,0 km/h (0 Bft)
_ Max-Zeit 09:20 09:05 01:05 00:00 04:30 08:30 - - 06:25 09:00 09:35 09:20 08:30
Maximum _ 15,4 C 22,8 C 94 % 1015,3 hPa 0,2 l/m 8,0 km/h
SW (2 Bft)
- - 5 min 0,229 mm 2,5 UV-I 719 W/m 19,3 km/h
SW (3 Bft)
Durchschnitt _ 11,9 C 12,8 C 91 % 1014,4 hPa #0,2 l/m 3,1 km/h (1 Bft) SW - #2:45 h #0,635 mm 1,4 UV-I 255 W/m 9,2 km/h (2 Bft)